Location: Unspecified
(43.3830°N, 0.0000°E)
Time: 09:17:13
(UTC+00:00)

Explorer 7 - Pass Details

Date: 27 June 2019
Orbit: 485 x 680 km, 50.3° (Epoch: 24 August)

Event Time Altitude Azimuth Distance (km) Brightness Sun altitude
Rises 10:45:26 0° 295° (WNW) 2,835 10.2 64.3°
Reaches altitude 10° 10:47:47 10° 303° (WNW) 1,965 9.5 64.6°
Maximum altitude 10:52:04 41° 14° (NNE) 930 8.4 65.2°
Drops below altitude 10° 10:56:34 10° 84° (E) 2,065 10.1 65.7°
Sets 10:59:05 0° 92° (E) 2,998 10.8 66.0°
